Yunyao-1 45

operational
NORAD ID: 63346 Int'l Des: 2025-059 Owner: YYAO Country: CN
LEOCIRCULARRETROGRADESSO

关于 Yunyao-1 45

正在加载描述...

实时位置

正在加载3D地球...

即将过境

高度历史

Altitude vs Time

uPlot chart will show altitude changes over time

两行轨道根数

1 63346U 25059C 26063.14556659 .00005875 00000-0 36153-3 0 9997
2 63346 97.6081 245.2439 0016854 153.5898 206.6194 15.10280900 52446
Epoch: Mar 4, 2026 • Age: 15 hours

当前状态

高度 552.5 km
速度 7.58 km/s
星下点 -13.82°S, 133.24°W
发射日期 Mar 21, 2025
运行时间 0.9 years
类型 other

技术详情

分类 Payload
质量 50.00 kg
干质量 50.00 kg
总质量 50.00 kg
长度 2.00 m
直径 1.50 m
跨度 5.00 m
形状 Box + pan
制造商 CGSTL
平台类型 YY-1
阶段状态 In Orbit
所有者/国家 YYAO/CN

大型星座

Loading constellations...